Stations météo

réclame
Mon MeteoGroup
Dunkeswell Aerodrome, Grande-Bretagne (3840): Température de l'air & dewpoint: 17.04.2018 02:00:00 - 23.04.2018 02:00:00 (BST)Dunkeswell Aerodrome, Grande-Bretagne (3840): Température de l'air -20cm & Température de l'air -100cm: 17.04.2018 02:00:00 - 23.04.2018 02:00:00 (BST)Dunkeswell Aerodrome, Grande-Bretagne (3840): Vitesse du vent & gusts: 17.04.2018 02:00:00 - 23.04.2018 02:00:00 (BST)Dunkeswell Aerodrome, Grande-Bretagne (3840): Direction du vent: 17.04.2018 02:00:00 - 23.04.2018 02:00:00 (BST)Dunkeswell Aerodrome, Grande-Bretagne (3840): reduced air pressure: 17.04.2018 02:00:00 - 23.04.2018 02:00:00 (BST)Dunkeswell Aerodrome, Grande-Bretagne (3840): visibility: 17.04.2018 02:00:00 - 23.04.2018 02:00:00 (BST)Dunkeswell Aerodrome, Grande-Bretagne (3840): Quantités de précipitations: 17.04.2018 02:00:00 - 23.04.2018 02:00:00 (BST)
Date & Time tt [°C] td [°C] tt -20cm [°C] tt -100cm [°C] ff [km/h] ff [knt] fx [km/h] fx [knt] dd ppp [hPa] vv [km] rr [mm]
23.04.2018 02:00:00 8,1 5,9 - - 15 8 - - W 1015,9 40 0,0
23.04.2018 01:00:00 7,9 6,0 - - 13 7 - - W 1016,0 25 0,0
23.04.2018 00:00:00 7,7 6,3 - - 13 7 - - W 1015,6 30 0,0
22.04.2018 23:00:00 7,4 6,1 - - 16 9 - - W 1015,1 30 0,0
22.04.2018 22:00:00 7,8 5,3 - - 15 8 - - W 1014,5 45 0,0
22.04.2018 21:00:00 8,6 5,4 - - 13 7 - - W 1013,9 50 0,0
22.04.2018 20:00:00 10,6 6,4 - - 16 9 - - W 1012,8 50 0,0
22.04.2018 19:00:00 11,9 7,8 - - 13 7 - - W 1012,0 50 0,0
22.04.2018 18:00:00 13,2 8,6 - - 18 10 - - W 1011,4 35 0,0
22.04.2018 17:00:00 13,2 9,3 - - 15 8 - - W 1011,2 45 0,0
22.04.2018 16:00:00 14,2 9,7 - - 15 8 - - W 1010,8 50 0,0
22.04.2018 15:00:00 14,6 9,1 - - 18 10 - - W 1010,8 40 0,0
22.04.2018 14:00:00 15,8 5,8 - - 18 10 - - WNW 1010,3 35 0,0
22.04.2018 13:00:00 15,7 5,6 - - 15 8 - - WNW 1009,9 35 0,0
22.04.2018 12:00:00 15,6 7,2 - - 16 9 - - WSW 1009,8 24 0,0
22.04.2018 11:00:00 14,3 8,9 - - 9 5 - - WSW 1010,1 11 0,0
22.04.2018 10:00:00 13,9 10,2 12,9 9,2 15 8 - - W 1010,2 8 0,0
22.04.2018 09:00:00 13,8 10,8 - - 8 4 - - SW 1009,8 9 0,0
22.04.2018 08:00:00 12,0 9,4 - - 13 7 - - SW 1009,9 8 0,0
22.04.2018 07:00:00 11,2 9,1 - - 16 9 - - SW 1009,7 8 0,0
22.04.2018 06:00:00 10,2 8,9 - - 16 9 - - S 1009,8 6 0,0
22.04.2018 05:00:00 11,0 9,8 - - 13 7 - - SSW 1010,0 11 0,0
22.04.2018 04:00:00 10,0 9,0 - - 13 7 - - S 1010,8 6 0,0
22.04.2018 03:00:00 10,7 9,7 - - 15 8 - - S 1011,3 8 0,0
22.04.2018 02:00:00 11,4 9,9 - - 11 6 - - SSE 1011,8 9 0,0
22.04.2018 01:00:00 12,5 10,4 - - 24 13 - - SE 1012,6 11 0,0
22.04.2018 00:00:00 13,0 10,2 - - 18 10 - - S 1013,5 10 0,0
21.04.2018 23:00:00 13,1 10,6 - - 18 10 - - S 1013,6 8 0,0
21.04.2018 22:00:00 13,1 10,3 - - 16 9 - - SSE 1013,7 8 0,0
21.04.2018 21:00:00 12,5 10,0 - - 22 12 - - SSE 1013,8 8 0,0
21.04.2018 20:00:00 13,8 10,7 - - 16 9 - - SE 1013,3 12 0,2
21.04.2018 19:00:00 14,5 11,1 - - 22 12 - - SSE 1015,4 6 0,2
21.04.2018 18:00:00 18,6 11,1 - - 16 9 - - SSW 1015,3 30 0,0
21.04.2018 17:00:00 20,2 11,5 - - 26 14 - - SSE 1015,0 24 0,0
21.04.2018 16:00:00 19,7 11,7 - - 28 15 - - SE 1015,8 18 0,0
21.04.2018 15:00:00 20,9 12,6 - - 24 13 - - SE 1016,6 21 0,0
21.04.2018 14:00:00 20,9 14,3 - - 16 9 - - SE 1017,3 26 0,0
21.04.2018 13:00:00 18,9 12,9 - - 16 9 - - SSE 1018,1 26 0,0
21.04.2018 12:00:00 13,9 11,5 - - 18 10 - - SE 1019,3 12 1,0
21.04.2018 11:00:00 14,7 10,5 - - 15 8 - - SE 1020,1 13 0,0
21.04.2018 10:00:00 15,6 11,1 12,7 9,0 21 11 - - SE 1020,4 14 0,0
21.04.2018 09:00:00 16,0 11,6 - - 5 3 - - SE 1020,3 10 0,0
21.04.2018 08:00:00 13,6 10,8 - - 9 5 - - E 1020,8 9 0,0
21.04.2018 07:00:00 9,9 8,1 - - 8 4 - - E 1021,5 10 0,0
21.04.2018 06:00:00 9,5 6,7 - - 8 4 - - E 1021,6 7 0,0
21.04.2018 05:00:00 9,7 6,2 - - 5 3 - - NE 1021,8 35 0,0
21.04.2018 04:00:00 9,6 5,6 - - 5 3 - - NE 1022,4 35 0,0
21.04.2018 03:00:00 9,8 5,1 - - 5 3 - - NE 1022,7 40 0,0
21.04.2018 02:00:00 9,9 5,3 - - 4 2 - - NNE 1023,1 30 0,0
21.04.2018 01:00:00 10,0 5,3 - - 4 2 - - ENE 1023,4 50 0,0
21.04.2018 00:00:00 10,5 6,4 - - 2 1 - - E 1023,5 45 0,0
20.04.2018 23:00:00 11,8 7,2 - - 5 3 - - N 1023,7 45 0,0
20.04.2018 22:00:00 11,8 6,9 - - 5 3 - - NE 1024,1 50 0,0
20.04.2018 21:00:00 12,9 7,0 - - 5 3 - - NE 1023,9 45 0,0
20.04.2018 20:00:00 16,0 7,8 - - 5 3 - - NNE 1023,3 50 0,0
20.04.2018 19:00:00 17,1 8,5 - - 9 5 - - NE 1023,1 40 0,0
20.04.2018 18:00:00 18,8 8,3 - - 13 7 - - NNE 1023,1 40 0,0
20.04.2018 17:00:00 20,3 8,8 - - 9 5 - - NNE 1023,1 30 0,0
20.04.2018 16:00:00 20,0 7,4 - - 5 3 - - NE 1023,5 35 0,0
20.04.2018 15:00:00 20,3 8,5 - - 5 3 - - E 1023,8 45 0,0
20.04.2018 14:00:00 19,3 9,8 - - 9 5 - - NE 1024,1 29 0,0
20.04.2018 13:00:00 18,4 9,6 - - 8 4 - - NE 1024,7 40 0,0
20.04.2018 12:00:00 17,2 9,6 - - 9 5 - - NNW 1024,8 30 0,0
20.04.2018 11:00:00 15,3 8,9 - - 9 5 - - N 1024,9 35 0,0
20.04.2018 10:00:00 12,9 8,2 12,0 8,7 8 4 - - NNW 1025,1 29 0,0
20.04.2018 09:00:00 10,0 9,8 - - 5 3 - - NNW 1025,1 12 0,0
20.04.2018 08:00:00 8,4 8,4 - - 2 1 - - NNW 1025,2 10 0,0
20.04.2018 07:00:00 7,0 7,0 - - 11 6 - - NW 1025,0 0,3 0,0
20.04.2018 06:00:00 7,2 7,1 - - 8 4 - - NW 1024,5 0,2 0,0
20.04.2018 05:00:00 7,9 7,8 - - 5 3 - - NW 1024,6 0,1 0,0
20.04.2018 04:00:00 8,1 8,0 - - 4 2 - - WNW 1024,7 0,1 0,0
20.04.2018 03:00:00 8,4 8,2 - - 8 4 - - NW 1024,8 0,1 0,0
20.04.2018 02:00:00 9,4 8,9 - - 5 3 - - NNW 1024,6 5 0,0
20.04.2018 01:00:00 10,5 9,3 - - 4 2 - - NW 1024,6 17 0,0
20.04.2018 00:00:00 11,4 10,7 - - 5 3 - - NW 1024,4 19 0,0
19.04.2018 23:00:00 12,0 10,4 - - 5 3 - - NNW 1024,6 27 0,0
19.04.2018 22:00:00 12,1 10,4 - - 5 3 - - NW 1024,7 30 0,0
19.04.2018 21:00:00 13,9 10,5 - - 5 3 - - N 1024,4 23 0,0
19.04.2018 20:00:00 14,8 10,6 - - 8 4 - - NE 1023,9 40 0,0
19.04.2018 19:00:00 17,6 11,9 - - 9 5 - - NNE 1023,6 25 0,0
19.04.2018 18:00:00 19,2 12,3 - - 11 6 - - NNE 1023,5 27 0,0
19.04.2018 17:00:00 20,0 12,5 - - 15 8 - - N 1023,3 23 0,0
19.04.2018 16:00:00 22,8 12,9 - - 5 3 - - N 1022,8 30 0,0
19.04.2018 15:00:00 22,7 10,0 - - 8 4 - - W 1023,0 24 0,0
19.04.2018 14:00:00 22,8 10,4 - - 4 2 - - S 1023,0 35 0,0
19.04.2018 13:00:00 21,9 10,0 - - 5 3 - - SE 1023,2 30 0,0
19.04.2018 12:00:00 20,3 10,2 - - 4 2 - - ENE 1023,5 35 0,0
19.04.2018 11:00:00 18,0 9,7 - - 8 4 - - NNW 1023,7 27 0,0
19.04.2018 10:00:00 17,5 9,7 10,9 8,5 9 5 - - WNW 1023,5 25 0,0
19.04.2018 09:00:00 16,8 9,4 - - 2 1 - - N 1023,2 22 -
19.04.2018 08:00:00 14,7 8,7 - - 5 3 - - W 1023,2 40 -
19.04.2018 07:00:00 9,7 6,7 - - 0 0 - - N 1023,1 35 -
19.04.2018 06:00:00 9,1 5,7 - - 0 0 - - N 1022,7 24 -
19.04.2018 05:00:00 12,1 7,3 - - 0 0 - - N 1022,4 50 -
19.04.2018 04:00:00 8,6 6,8 - - 0 0 - - N 1022,7 26 -
19.04.2018 03:00:00 9,5 8,0 - - 0 0 - - N 1022,9 19 -
19.04.2018 02:00:00 9,9 7,3 - - 9 5 - - S 1023,1 16 0,0
19.04.2018 01:00:00 12,2 9,1 - - 16 9 - - S 1022,9 19 0,0
19.04.2018 00:00:00 11,6 8,3 - - 16 9 - - S 1023,4 17 0,0
18.04.2018 23:00:00 14,2 8,8 - - 16 9 - - SE 1022,6 26 0,0
18.04.2018 22:00:00 13,7 8,0 - - 16 9 - - SSE 1022,8 30 0,0
18.04.2018 21:00:00 15,3 7,8 - - 28 15 - - SE 1022,3 30 0,0
18.04.2018 20:00:00 16,0 8,2 - - 29 16 - - SE 1022,3 26 0,0
18.04.2018 19:00:00 16,5 9,0 - - 29 16 46 25 SE 1022,5 21 0,0
18.04.2018 18:00:00 17,2 9,1 - - 34 18 50 27 SE 1022,7 20 0,0
18.04.2018 17:00:00 17,8 9,6 - - 31 17 50 27 SE 1023,2 22 0,0
18.04.2018 16:00:00 18,4 11,0 - - 31 17 55 30 SSE 1023,6 25 0,0
18.04.2018 15:00:00 17,6 11,4 - - 39 21 52 28 SE 1023,9 30 0,0
18.04.2018 14:00:00 17,5 12,5 - - 29 16 48 26 SE 1024,6 23 0,0
18.04.2018 13:00:00 17,8 11,7 - - 29 16 - - SSE 1024,9 50 0,0
18.04.2018 12:00:00 16,8 12,1 - - 26 14 - - SE 1025,5 35 0,0
18.04.2018 11:00:00 15,5 11,7 - - 18 10 - - SSE 1026,0 26 0,0
18.04.2018 10:00:00 13,9 11,2 9,7 8,4 16 9 - - SSE 1026,1 20 0,0
18.04.2018 09:00:00 12,0 10,6 - - 16 9 - - S 1026,3 11 0,0
18.04.2018 08:00:00 11,1 11,0 - - 11 6 - - S 1025,9 11 0,0
18.04.2018 07:00:00 10,2 10,2 - - 16 9 - - S 1025,6 8 0,0
18.04.2018 06:00:00 10,5 10,5 - - 21 11 - - S 1025,1 3,2 0,0
18.04.2018 05:00:00 10,2 10,2 - - 22 12 - - S 1024,7 1,1 0,0
18.04.2018 04:00:00 10,2 10,2 - - 24 13 - - S 1024,1 0,7 0,0
18.04.2018 03:00:00 10,5 10,5 - - 26 14 - - S 1023,8 3,5 0,0
18.04.2018 02:00:00 11,1 11,1 - - 26 14 - - S 1023,2 6 0,0
18.04.2018 01:00:00 11,1 11,1 - - 24 13 - - SSW 1023,0 5 0,0
18.04.2018 00:00:00 11,0 11,0 - - 22 12 46 25 S 1022,7 4,9 0,0
17.04.2018 23:00:00 10,6 10,6 - - 26 14 - - S 1022,4 2,6 0,0
17.04.2018 22:00:00 10,4 10,4 - - 28 15 48 26 SSW 1022,1 3,7 0,2
17.04.2018 21:00:00 10,6 10,6 - - 26 14 - - S 1021,2 0,2 0,0
17.04.2018 20:00:00 10,6 10,5 - - 26 14 - - SSW 1020,6 0,1 0,2
17.04.2018 19:00:00 10,5 10,4 - - 29 16 - - S 1019,8 0,4 0,2
17.04.2018 18:00:00 10,4 10,4 - - 29 16 - - S 1019,3 0,2 0,2
17.04.2018 17:00:00 10,4 10,4 - - 29 16 48 26 S 1018,8 0,2 0,4
17.04.2018 16:00:00 10,4 10,4 - - 29 16 50 27 S 1018,5 0,7 0,2
17.04.2018 15:00:00 10,2 10,2 - - 31 17 57 31 S 1018,3 1,3 0,2
17.04.2018 14:00:00 9,9 9,7 - - 34 18 54 29 S 1017,9 3,1 0,0
17.04.2018 13:00:00 9,9 9,7 - - 35 19 57 31 S 1017,3 5 0,0
17.04.2018 12:00:00 9,6 9,0 - - 35 19 59 32 S 1017,1 3,9 0,0
17.04.2018 11:00:00 10,0 8,2 - - 39 21 61 33 S 1016,4 11 0,0
17.04.2018 10:00:00 9,7 7,5 9,9 8,2 39 21 59 32 S 1015,8 12 0,0
17.04.2018 09:00:00 9,3 7,0 - - 37 20 57 31 S 1015,5 10 0,0
17.04.2018 08:00:00 9,3 6,6 - - 41 22 59 32 S 1015,1 11 0,0
17.04.2018 07:00:00 9,1 6,3 - - 34 18 59 32 S 1014,7 13 0,0
17.04.2018 06:00:00 9,2 6,4 - - 39 21 59 32 S 1014,2 13 0,0
17.04.2018 05:00:00 8,8 6,9 - - 37 20 59 32 S 1014,1 11 0,0
17.04.2018 04:00:00 9,0 7,0 - - 39 21 61 33 S 1014,4 12 0,0
17.04.2018 03:00:00 9,0 7,1 - - 39 21 59 32 S 1014,1 12 0,0
17.04.2018 02:00:00 9,1 6,9 - - 34 18 59 32 S 1014,6 14 0,0

tt = Température de l'air
td = dewpoint
tt -20cm = Température de l'air -20cm
tt -100cm = Température de l'air -100cm
ff = Vitesse du vent
fx = gusts
dd = Direction du vent
ppp = reduced air pressure
vv = visibility
rr = Quantités de précipitations

stations d'obs. à proximité